sat.trackr.live / text

‹ back to catalog

STARLINK-30316

NORAD 57673 · 2023-124L

PAYLOAD ACTIVE UNKNOWN

§ Identity

Operator
Country
US
Launch date
2023-08-22
Launch site
AFWTR
Launch vehicle
Mass (kg)
RCS (m²)

Purposes: comms

External: N2YO · Heavens-Above · Gunter

§ Orbital elements

Epoch: 2026-05-25T04:12:29.325024Z

Period
94.11 min
Inclination
53.1610°
Eccentricity
0.0000985
Mean motion
15.30190415 rev/d
Perigee alt
474.6 km
Apogee alt
475.9 km
Semi-major
6,853.4 km
B*
2.6961e-5
RAAN
211.8080°
Arg perigee
83.7594°
Mean anomaly
276.3519°
Rev number
15,527

§ Raw data

STARLINK-303161 57673U 23124L   26145.17533941  .00000439  00000+0  26961-4 0  99942 57673  53.1610 211.8080 0000985  83.7594 276.3519 15.30190415155276

JSON: /api/v1/satellites/57673 · /tle

For live sub-satellite position, see the globe view (requires WebGL).

§ Visibility from observer

Set your observer location to see the next 7 days of passes ≥ 10°. The values pass through the URL so the page stays shareable.

No JS? Fill the form by hand. The geolocation button needs JavaScript.